Morgan, Kentucky
Current Conditions -  °F | °C
As of 4:38 AM on Friday 24 Oct 2014 (Local Time) from KLUK Reporting Station
Haze Haze  
Wind Chill: 40°   Ceiling: Unl
Heat Index: 40°   Visibility: 5mi
Dew Point: 39°   Wind: 0mph
Humidity: 97%   Direction: NA
Pressure: 30.14"   Gusts: NA
Location:  38.6506°N, 84.351°W
Report Text: KLUK 240838Z AUTO 00000KT 5SM BR SCT003 04/04 A3014 RMK AO2 T00440039
Loading
Personal Weather Stations






























Interactive Weather Map
Tropical Storm Tracking
New forecast layout! Learn more

10-Day Weather Forecast

Advertisements
Track Severe Weather on mobile